Regional Weather Roundup
Issued by NWS Charleston, WV

Home | Current Version | Previous Version | Graphics & Text | Print | Product List | Glossary On
Versions: 1 2 3 4 5 6 7 8 9 10 11 12 13 14 15 16 17 18 19 20 21 22 23 24 25 26 27 28 29 30 31 32 33 34 35 36 37 38 39 40 41 42 43 44 45 46 47 48 49 50
017
ASUS41 KRLX 110410
RWRRLX
West Virginia Regional Weather Roundup
National Weather Service Charleston WV
1100 PM EST WED FEB 10 2016

Note: "fair" indicates few or no clouds below 12,000 feet with no
significant weather and/or obstructions to visibility.

WVZ003-110500-
Northern Panhandle of West Virginia

CITY           SKY/WX    TMP DP  RH WIND       PRES   REMARKS
WHEELING       FLURRIES  14   7  73 W12G24    29.97R WCI   0
$$

WVZ009-110500-
Northwest West Virginia

CITY           SKY/WX    TMP DP  RH WIND       PRES   REMARKS
PARKERSBURG    CLOUDY    14   5  67 W9        30.10R WCI   2
$$

WVZ006-110500-
Western West Virginia

CITY           SKY/WX    TMP DP  RH WIND       PRES   REMARKS
HUNTINGTON     FLURRIES  18   9  68 SW5       30.12R
$$

WVZ015-110500-
West Central West Virginia

CITY           SKY/WX    TMP DP  RH WIND       PRES   REMARKS
CHARLESTON     CLOUDY    17   6  62 VRB6      30.11R WCI   9
$$

WVZ022-031-110500-
North Central West Virginia

CITY           SKY/WX    TMP DP  RH WIND       PRES   REMARKS
CLARKSBURG     LGT SNOW  15  11  83 W14G21    30.00R FOG     WCI   0
MORGANTOWN     FLURRIES  15   4  61 W7G17     29.99R WCI   5
$$

WVZ025-035-042-045-110500-
Southern West Virginia

CITY           SKY/WX    TMP DP  RH WIND       PRES   REMARKS
BECKLEY        LGT SNOW  11   3  70 W12G20    29.97S WCI  -3
LOGAN          CLOUDY    16   7  67 W7        30.06S WCI   6
BLUEFIELD      MOCLDY     9   0  67 W15G30    29.95R WCI  -8
LEWISBURG      LGT SNOW  15   8  73 CALM      29.96R
$$

WVZ047-110500-
Northern Mountains of West Virginia

CITY           SKY/WX    TMP DP  RH WIND       PRES   REMARKS
ELKINS         LGT SNOW  13   5  70 W12       29.94R WCI  -1
$$

WVZ052-110500-
Eastern Panhandle of West Virginia

CITY           SKY/WX    TMP DP  RH WIND       PRES   REMARKS
MARTINSBURG      N/A     22   6  50 W15G25    29.93R WCI   9
PETERSBURG     FLURRIES  20  10  65 CALM      29.98R
$$




USA.gov is the U.S. government's official web portal to all federal, state and local government web resources and services.